This is the latest recevied weather packets stored in our database for station/object AB4KN. If no packets are shown the sender has not sent any weather packets the latest 10 day(s).
| Time | Temp. | Humidity | Pressure | Rain* | Wind** | Luminosity | Snow |
|---|---|---|---|---|---|---|---|
| 1777506155 | 24.44° C | 73% | 1016 hPa | 0 mm | - | 0 W/m² | - |
| 1777505851 | 24.44° C | 73% | 1015.7 hPa | 0 mm | - | 3 W/m² | - |
| 1777505548 | 24.44° C | 73% | 1015.4 hPa | 0 mm | - | 3 W/m² | - |
| 1777505244 | 24.44° C | 73% | 1015.5 hPa | 0 mm | - | 6 W/m² | - |
| 1777504941 | 24.44° C | 73% | 1015.4 hPa | 0 mm | - | 3 W/m² | - |
| 1777504638 | 24.44° C | 72% | 1015.2 hPa | 0 mm | - | 11 W/m² | - |
| 1777504335 | 25° C | 72% | 1015.2 hPa | 0 mm | - | 4 W/m² | - |
| 1777504029 | 25° C | 71% | 1015.2 hPa | 0 mm | - | 10 W/m² | - |
| 1777503727 | 25° C | 72% | 1015.4 hPa | 0 mm | - | 8 W/m² | - |
| 1777503423 | 25° C | 72% | 1015.9 hPa | 0 mm | - | 12 W/m² | - |
| 1777503119 | 25.56° C | 70% | 1016.1 hPa | 0 mm | - | 16 W/m² | - |
| 1777502817 | 25.56° C | 70% | 1016 hPa | 0 mm | - | 20 W/m² | - |
| 1777502514 | 25.56° C | 69% | 1015.8 hPa | 0 mm | - | 24 W/m² | - |
| 1777502211 | 26.11° C | 67% | 1016.1 hPa | 0 mm | - | 26 W/m² | - |
| 1777501908 | 26.11° C | 67% | 1015.8 hPa | 0 mm | - | 29 W/m² | - |
| 1777501605 | 26.11° C | 66% | 1015.7 hPa | 0 mm | - | 22 W/m² | - |
| 1777501302 | 26.11° C | 66% | 1015.5 hPa | 0 mm | - | 17 W/m² | - |
| 1777501000 | 26.11° C | 66% | 1015.4 hPa | 0 mm | - | 37 W/m² | - |
| 1777500697 | 26.11° C | 67% | 1015.5 hPa | 0 mm | - | 44 W/m² | - |
| 1777500394 | 26.11° C | 67% | 1015.8 hPa | 0 mm | - | 39 W/m² | - |
| 1777500090 | 26.11° C | 66% | 1015.8 hPa | 0 mm | - | 41 W/m² | - |
| 1777499787 | 26.11° C | 67% | 1015.9 hPa | 0 mm | - | 38 W/m² | - |
| 1777499483 | 26.67° C | 67% | 1015.7 hPa | 0 mm | - | 56 W/m² | - |
| 1777499182 | 26.67° C | 65% | 1015.7 hPa | 0 mm | - | 58 W/m² | - |
| 1777498878 | 26.67° C | 65% | 1015.4 hPa | 0 mm | - | 51 W/m² | - |
* Rain latest hour (hover to see other rain measurements)
** Current wind speed in m/s (hover to see current wind gust speed)